Location: EverStaR Observatory
(38.9036°N, 94.8303°W)
Time: 18:06:24
(UTC-05:00)

Tiangong 2 - Visible Passes

Search period start: 24 March 2019 00:00
Search period end: 03 April 2019 00:00
Orbit: 380 x 389 km, 42.8° (Epoch: 24 March)

Date Brightness Start Highest point End Pass type
(mag) Time Alt. Az. Time Alt. Az. Time Alt. Az.
24 Mar 3.1 05:31:36 21° SSE 05:31:36 21° SSE 05:32:53 10° SE visible
25 Mar 3.5 06:07:50 11° SSW 06:07:50 11° SSW 06:08:15 10° S visible
28 Mar 3.6 21:15:55 10° SSW 21:16:23 13° SSW 21:16:23 13° SSW visible
29 Mar 3.1 20:17:28 10° S 20:19:12 14° SE 20:20:30 12° ESE visible
29 Mar 4.0 21:52:27 10° WSW 21:52:47 12° WSW 21:52:47 12° WSW visible
30 Mar 1.4 20:53:04 10° SW 20:56:05 45° SSE 20:56:42 38° ESE visible
31 Mar 1.8 21:30:07 10° W 21:32:41 52° WNW 21:32:41 52° WNW visible
01 Apr 1.0 20:30:32 10° WSW 20:33:40 79° SSE 20:36:17 14° ENE visible
01 Apr 4.0 22:07:35 10° WNW 22:08:31 17° WNW 22:08:31 17° WNW visible
02 Apr 1.8 21:07:51 10° W 21:10:55 48° N 21:11:58 32° NE visible
